Data supplied by UK-AIR on 31/3/2012
All Data GMT hour ending 
Status: R =Ratified P=Provisional,P*=As supplied
,,Tower Hamlets Roadside,,,,,,,,,,,,,,,,,,,,,,,
Date,time,"Carbon monoxide",status,unit,"Nitric oxide",status,unit,"Nitrogen dioxide",status,unit,"Nitrogen oxides as nitrogen dioxide",status,unit
 
01-01-2011,01:00,,,,49,R,ugm-3,65,R,ugm-3,139,R,ugm-3
01-01-2011,02:00,,,,45,R,ugm-3,61,R,ugm-3,130,R,ugm-3
01-01-2011,03:00,,,,46,R,ugm-3,53,R,ugm-3,124,R,ugm-3
01-01-2011,04:00,,,,44,R,ugm-3,55,R,ugm-3,122,R,ugm-3
01-01-2011,05:00,,,,30,R,ugm-3,52,R,ugm-3,97,R,ugm-3
01-01-2011,06:00,,,,25,R,ugm-3,52,R,ugm-3,90,R,ugm-3
01-01-2011,07:00,,,,28,R,ugm-3,53,R,ugm-3,96,R,ugm-3
01-01-2011,08:00,,,,41,R,ugm-3,61,R,ugm-3,124,R,ugm-3
01-01-2011,09:00,,,,46,R,ugm-3,61,R,ugm-3,132,R,ugm-3
01-01-2011,10:00,,,,49,R,ugm-3,67,R,ugm-3,141,R,ugm-3
01-01-2011,11:00,,,,54,R,ugm-3,69,R,ugm-3,151,R,ugm-3
01-01-2011,12:00,,,,43,R,ugm-3,63,R,ugm-3,128,R,ugm-3
01-01-2011,13:00,,,,49,R,ugm-3,65,R,ugm-3,139,R,ugm-3
01-01-2011,14:00,,,,54,R,ugm-3,65,R,ugm-3,147,R,ugm-3
01-01-2011,15:00,,,,51,R,ugm-3,63,R,ugm-3,141,R,ugm-3
01-01-2011,16:00,,,,54,R,ugm-3,63,R,ugm-3,145,R,ugm-3
01-01-2011,17:00,,,,59,R,ugm-3,82,R,ugm-3,172,R,ugm-3
01-01-2011,18:00,,,,59,R,ugm-3,84,R,ugm-3,174,R,ugm-3
01-01-2011,19:00,,,,60,R,ugm-3,80,R,ugm-3,172,R,ugm-3
01-01-2011,20:00,,,,54,R,ugm-3,74,R,ugm-3,157,R,ugm-3
01-01-2011,21:00,,,,53,R,ugm-3,74,R,ugm-3,155,R,ugm-3
01-01-2011,22:00,,,,53,R,ugm-3,71,R,ugm-3,151,R,ugm-3
01-01-2011,23:00,,,,41,R,ugm-3,65,R,ugm-3,128,R,ugm-3
01-01-2011,24:00,,,,31,R,ugm-3,57,R,ugm-3,105,R,ugm-3
02-01-2011,01:00,,,,30,R,ugm-3,55,R,ugm-3,101,R,ugm-3
02-01-2011,02:00,,,,30,R,ugm-3,57,R,ugm-3,103,R,ugm-3
02-01-2011,03:00,,,,24,R,ugm-3,52,R,ugm-3,88,R,ugm-3
02-01-2011,04:00,,,,16,R,ugm-3,44,R,ugm-3,69,R,ugm-3
02-01-2011,05:00,,,,15,R,ugm-3,42,R,ugm-3,65,R,ugm-3
02-01-2011,06:00,,,,14,R,ugm-3,40,R,ugm-3,61,R,ugm-3
02-01-2011,07:00,,,,25,R,ugm-3,52,R,ugm-3,90,R,ugm-3
02-01-2011,08:00,,,,34,R,ugm-3,55,R,ugm-3,107,R,ugm-3
02-01-2011,09:00,,,,25,R,ugm-3,53,R,ugm-3,92,R,ugm-3
02-01-2011,10:00,,,,40,R,ugm-3,63,R,ugm-3,124,R,ugm-3
02-01-2011,11:00,,,,45,R,ugm-3,67,R,ugm-3,136,R,ugm-3
02-01-2011,12:00,,,,53,R,ugm-3,73,R,ugm-3,153,R,ugm-3
02-01-2011,13:00,,,,53,R,ugm-3,76,R,ugm-3,157,R,ugm-3
02-01-2011,14:00,,,,88,R,ugm-3,86,R,ugm-3,220,R,ugm-3
02-01-2011,15:00,,,,74,R,ugm-3,92,R,ugm-3,204,R,ugm-3
02-01-2011,16:00,,,,91,R,ugm-3,92,R,ugm-3,231,R,ugm-3
02-01-2011,17:00,,,,108,R,ugm-3,105,R,ugm-3,269,R,ugm-3
02-01-2011,18:00,,,,93,R,ugm-3,103,R,ugm-3,244,R,ugm-3
02-01-2011,19:00,,,,88,R,ugm-3,99,R,ugm-3,233,R,ugm-3
02-01-2011,20:00,,,,85,R,ugm-3,94,R,ugm-3,223,R,ugm-3
02-01-2011,21:00,,,,80,R,ugm-3,94,R,ugm-3,216,R,ugm-3
02-01-2011,22:00,,,,64,R,ugm-3,84,R,ugm-3,181,R,ugm-3
02-01-2011,23:00,,,,64,R,ugm-3,82,R,ugm-3,180,R,ugm-3
02-01-2011,24:00,,,,53,R,ugm-3,76,R,ugm-3,157,R,ugm-3
03-01-2011,01:00,,,,60,R,ugm-3,78,R,ugm-3,170,R,ugm-3
03-01-2011,02:00,,,,45,R,ugm-3,69,R,ugm-3,138,R,ugm-3
03-01-2011,03:00,,,,33,R,ugm-3,61,R,ugm-3,111,R,ugm-3
03-01-2011,04:00,,,,30,R,ugm-3,63,R,ugm-3,109,R,ugm-3
03-01-2011,05:00,,,,23,R,ugm-3,53,R,ugm-3,88,R,ugm-3
03-01-2011,06:00,,,,36,R,ugm-3,65,R,ugm-3,120,R,ugm-3
03-01-2011,07:00,,,,48,R,ugm-3,76,R,ugm-3,149,R,ugm-3
03-01-2011,08:00,,,,43,R,ugm-3,74,R,ugm-3,139,R,ugm-3
03-01-2011,09:00,,,,66,R,ugm-3,78,R,ugm-3,180,R,ugm-3
03-01-2011,10:00,,,,95,R,ugm-3,90,R,ugm-3,235,R,ugm-3
03-01-2011,11:00,,,,129,R,ugm-3,97,R,ugm-3,294,R,ugm-3
03-01-2011,12:00,,,,104,R,ugm-3,96,R,ugm-3,254,R,ugm-3
03-01-2011,13:00,,,,94,R,ugm-3,90,R,ugm-3,233,R,ugm-3
03-01-2011,14:00,,,,29,R,ugm-3,76,R,ugm-3,120,R,ugm-3
03-01-2011,15:00,,,,29,R,ugm-3,73,R,ugm-3,117,R,ugm-3
03-01-2011,16:00,,,,21,R,ugm-3,65,R,ugm-3,97,R,ugm-3
03-01-2011,17:00,,,,21,R,ugm-3,69,R,ugm-3,101,R,ugm-3
03-01-2011,18:00,,,,34,R,ugm-3,69,R,ugm-3,120,R,ugm-3
03-01-2011,19:00,,,,16,R,ugm-3,65,R,ugm-3,90,R,ugm-3
03-01-2011,20:00,,,,19,R,ugm-3,61,R,ugm-3,90,R,ugm-3
03-01-2011,21:00,,,,14,R,ugm-3,57,R,ugm-3,78,R,ugm-3
03-01-2011,22:00,,,,28,R,ugm-3,73,R,ugm-3,115,R,ugm-3
03-01-2011,23:00,,,,31,R,ugm-3,73,R,ugm-3,120,R,ugm-3
03-01-2011,24:00,,,,48,R,ugm-3,80,R,ugm-3,153,R,ugm-3
04-01-2011,01:00,,,,25,R,ugm-3,71,R,ugm-3,109,R,ugm-3
04-01-2011,02:00,,,,5,R,ugm-3,50,R,ugm-3,57,R,ugm-3
04-01-2011,03:00,,,,9,R,ugm-3,42,R,ugm-3,55,R,ugm-3
04-01-2011,04:00,,,,4,R,ugm-3,36,R,ugm-3,42,R,ugm-3
04-01-2011,05:00,,,,9,R,ugm-3,48,R,ugm-3,61,R,ugm-3
04-01-2011,06:00,,,,14,R,ugm-3,48,R,ugm-3,69,R,ugm-3
04-01-2011,07:00,,,,19,R,ugm-3,48,R,ugm-3,76,R,ugm-3
04-01-2011,08:00,,,,28,R,ugm-3,52,R,ugm-3,94,R,ugm-3
04-01-2011,09:00,,,,78,R,ugm-3,78,R,ugm-3,197,R,ugm-3
04-01-2011,10:00,,,,160,R,ugm-3,105,R,ugm-3,350,R,ugm-3
04-01-2011,11:00,,,,39,R,ugm-3,71,R,ugm-3,130,R,ugm-3
04-01-2011,12:00,,,,36,R,ugm-3,67,R,ugm-3,122,R,ugm-3
04-01-2011,13:00,,,,48,R,ugm-3,71,R,ugm-3,143,R,ugm-3
04-01-2011,14:00,,,,45,R,ugm-3,69,R,ugm-3,138,R,ugm-3
04-01-2011,15:00,,,,41,R,ugm-3,65,R,ugm-3,128,R,ugm-3
04-01-2011,16:00,,,,33,R,ugm-3,63,R,ugm-3,113,R,ugm-3
04-01-2011,17:00,,,,23,R,ugm-3,63,R,ugm-3,97,R,ugm-3
04-01-2011,18:00,,,,20,R,ugm-3,65,R,ugm-3,96,R,ugm-3
04-01-2011,19:00,,,,21,R,ugm-3,63,R,ugm-3,96,R,ugm-3
04-01-2011,20:00,,,,16,R,ugm-3,57,R,ugm-3,82,R,ugm-3
04-01-2011,21:00,,,,10,R,ugm-3,48,R,ugm-3,63,R,ugm-3
04-01-2011,22:00,,,,8,R,ugm-3,42,R,ugm-3,53,R,ugm-3
04-01-2011,23:00,,,,6,R,ugm-3,36,R,ugm-3,46,R,ugm-3
04-01-2011,24:00,,,,5,R,ugm-3,32,R,ugm-3,40,R,ugm-3
05-01-2011,01:00,,,,6,R,ugm-3,27,R,ugm-3,36,R,ugm-3
05-01-2011,02:00,,,,3,R,ugm-3,17,R,ugm-3,21,R,ugm-3
05-01-2011,03:00,,,,3,R,ugm-3,17,R,ugm-3,21,R,ugm-3
05-01-2011,04:00,,,,1,R,ugm-3,17,R,ugm-3,19,R,ugm-3
05-01-2011,05:00,,,,3,R,ugm-3,15,R,ugm-3,19,R,ugm-3
05-01-2011,06:00,,,,1,R,ugm-3,15,R,ugm-3,17,R,ugm-3
05-01-2011,07:00,,,,6,R,ugm-3,27,R,ugm-3,36,R,ugm-3
05-01-2011,08:00,,,,10,R,ugm-3,42,R,ugm-3,57,R,ugm-3
05-01-2011,09:00,,,,20,R,ugm-3,55,R,ugm-3,86,R,ugm-3
05-01-2011,10:00,,,,21,R,ugm-3,53,R,ugm-3,86,R,ugm-3
05-01-2011,11:00,,,,11,R,ugm-3,34,R,ugm-3,52,R,ugm-3
05-01-2011,12:00,,,,10,R,ugm-3,29,R,ugm-3,44,R,ugm-3
05-01-2011,13:00,,,,11,R,ugm-3,40,R,ugm-3,57,R,ugm-3
05-01-2011,14:00,,,,11,R,ugm-3,38,R,ugm-3,55,R,ugm-3
05-01-2011,15:00,,,,16,R,ugm-3,50,R,ugm-3,74,R,ugm-3
05-01-2011,16:00,,,,16,R,ugm-3,42,R,ugm-3,67,R,ugm-3
05-01-2011,17:00,,,,23,R,ugm-3,55,R,ugm-3,90,R,ugm-3
05-01-2011,18:00,,,,23,R,ugm-3,53,R,ugm-3,88,R,ugm-3
05-01-2011,19:00,,,,19,R,ugm-3,55,R,ugm-3,84,R,ugm-3
05-01-2011,20:00,,,,30,R,ugm-3,63,R,ugm-3,109,R,ugm-3
05-01-2011,21:00,,,,24,R,ugm-3,55,R,ugm-3,92,R,ugm-3
05-01-2011,22:00,,,,28,R,ugm-3,53,R,ugm-3,96,R,ugm-3
05-01-2011,23:00,,,,25,R,ugm-3,53,R,ugm-3,92,R,ugm-3
05-01-2011,24:00,,,,53,R,ugm-3,65,R,ugm-3,145,R,ugm-3
06-01-2011,01:00,,,,63,R,ugm-3,74,R,ugm-3,170,R,ugm-3
06-01-2011,02:00,,,,58,R,ugm-3,67,R,ugm-3,155,R,ugm-3
06-01-2011,03:00,,,,25,R,ugm-3,57,R,ugm-3,96,R,ugm-3
06-01-2011,04:00,,,,24,R,ugm-3,61,R,ugm-3,97,R,ugm-3
06-01-2011,05:00,,,,18,R,ugm-3,55,R,ugm-3,82,R,ugm-3
06-01-2011,06:00,,,,43,R,ugm-3,63,R,ugm-3,128,R,ugm-3
06-01-2011,07:00,,,,88,R,ugm-3,88,R,ugm-3,222,R,ugm-3
06-01-2011,08:00,,,,131,R,ugm-3,101,R,ugm-3,302,R,ugm-3
06-01-2011,09:00,,,,223,R,ugm-3,122,R,ugm-3,462,R,ugm-3
06-01-2011,10:00,,,,223,R,ugm-3,134,R,ugm-3,474,R,ugm-3
06-01-2011,11:00,,,,211,R,ugm-3,132,R,ugm-3,455,R,ugm-3
06-01-2011,12:00,,,,173,R,ugm-3,115,R,ugm-3,378,R,ugm-3
06-01-2011,13:00,,,,148,R,ugm-3,117,R,ugm-3,342,R,ugm-3
06-01-2011,14:00,,,,165,R,ugm-3,122,R,ugm-3,374,R,ugm-3
06-01-2011,15:00,,,,111,R,ugm-3,122,R,ugm-3,292,R,ugm-3
06-01-2011,16:00,,,,164,R,ugm-3,132,R,ugm-3,382,R,ugm-3
06-01-2011,17:00,,,,218,R,ugm-3,153,R,ugm-3,485,R,ugm-3
06-01-2011,18:00,,,,164,R,ugm-3,141,R,ugm-3,392,R,ugm-3
06-01-2011,19:00,,,,155,R,ugm-3,124,R,ugm-3,361,R,ugm-3
06-01-2011,20:00,,,,180,R,ugm-3,128,R,ugm-3,403,R,ugm-3
06-01-2011,21:00,,,,194,R,ugm-3,132,R,ugm-3,428,R,ugm-3
06-01-2011,22:00,,,,175,R,ugm-3,118,R,ugm-3,386,R,ugm-3
06-01-2011,23:00,,,,208,R,ugm-3,126,R,ugm-3,443,R,ugm-3
06-01-2011,24:00,,,,223,R,ugm-3,122,R,ugm-3,462,R,ugm-3
07-01-2011,01:00,,,,245,R,ugm-3,130,R,ugm-3,504,R,ugm-3
07-01-2011,02:00,,,,249,R,ugm-3,124,R,ugm-3,504,R,ugm-3
07-01-2011,03:00,,,,154,R,ugm-3,103,R,ugm-3,338,R,ugm-3
07-01-2011,04:00,0.7,R,mgm-3,85,R,ugm-3,78,R,ugm-3,208,R,ugm-3
07-01-2011,05:00,0.6,R,mgm-3,55,R,ugm-3,67,R,ugm-3,151,R,ugm-3
07-01-2011,06:00,0.6,R,mgm-3,54,R,ugm-3,63,R,ugm-3,145,R,ugm-3
07-01-2011,07:00,0.6,R,mgm-3,66,R,ugm-3,69,R,ugm-3,170,R,ugm-3
07-01-2011,08:00,0.7,R,mgm-3,88,R,ugm-3,71,R,ugm-3,204,R,ugm-3
07-01-2011,09:00,0.8,R,mgm-3,90,R,ugm-3,74,R,ugm-3,212,R,ugm-3
07-01-2011,10:00,0.7,R,mgm-3,70,R,ugm-3,76,R,ugm-3,183,R,ugm-3
07-01-2011,11:00,0.7,R,mgm-3,95,R,ugm-3,88,R,ugm-3,233,R,ugm-3
07-01-2011,12:00,0.9,R,mgm-3,180,R,ugm-3,103,R,ugm-3,378,R,ugm-3
07-01-2011,13:00,1.0,R,mgm-3,203,R,ugm-3,103,R,ugm-3,413,R,ugm-3
07-01-2011,14:00,1.3,R,mgm-3,294,R,ugm-3,126,R,ugm-3,575,R,ugm-3
07-01-2011,15:00,1.0,R,mgm-3,179,R,ugm-3,111,R,ugm-3,384,R,ugm-3
07-01-2011,16:00,0.5,R,mgm-3,24,R,ugm-3,76,R,ugm-3,113,R,ugm-3
07-01-2011,17:00,0.5,R,mgm-3,21,R,ugm-3,69,R,ugm-3,101,R,ugm-3
07-01-2011,18:00,0.3,R,mgm-3,10,R,ugm-3,46,R,ugm-3,61,R,ugm-3
07-01-2011,19:00,0.3,R,mgm-3,8,R,ugm-3,40,R,ugm-3,52,R,ugm-3
07-01-2011,20:00,0.3,R,mgm-3,10,R,ugm-3,42,R,ugm-3,57,R,ugm-3
07-01-2011,21:00,0.3,R,mgm-3,9,R,ugm-3,36,R,ugm-3,50,R,ugm-3
07-01-2011,22:00,0.2,R,mgm-3,4,R,ugm-3,27,R,ugm-3,32,R,ugm-3
07-01-2011,23:00,0.3,R,mgm-3,5,R,ugm-3,34,R,ugm-3,42,R,ugm-3
07-01-2011,24:00,0.2,R,mgm-3,3,R,ugm-3,27,R,ugm-3,31,R,ugm-3
08-01-2011,01:00,0.2,R,mgm-3,3,R,ugm-3,21,R,ugm-3,25,R,ugm-3
08-01-2011,02:00,0.2,R,mgm-3,3,R,ugm-3,19,R,ugm-3,23,R,ugm-3
08-01-2011,03:00,0.2,R,mgm-3,1,R,ugm-3,23,R,ugm-3,25,R,ugm-3
08-01-2011,04:00,0.2,R,mgm-3,1,R,ugm-3,13,R,ugm-3,15,R,ugm-3
08-01-2011,05:00,0.2,R,mgm-3,1,R,ugm-3,15,R,ugm-3,17,R,ugm-3
08-01-2011,06:00,0.2,R,mgm-3,1,R,ugm-3,19,R,ugm-3,21,R,ugm-3
08-01-2011,07:00,0.2,R,mgm-3,3,R,ugm-3,11,R,ugm-3,15,R,ugm-3
08-01-2011,08:00,0.2,R,mgm-3,8,R,ugm-3,21,R,ugm-3,32,R,ugm-3
08-01-2011,09:00,0.2,R,mgm-3,10,R,ugm-3,25,R,ugm-3,40,R,ugm-3
08-01-2011,10:00,0.3,R,mgm-3,20,R,ugm-3,42,R,ugm-3,73,R,ugm-3
08-01-2011,11:00,0.3,R,mgm-3,24,R,ugm-3,50,R,ugm-3,86,R,ugm-3
08-01-2011,12:00,0.3,R,mgm-3,25,R,ugm-3,50,R,ugm-3,88,R,ugm-3
08-01-2011,13:00,0.5,R,mgm-3,33,R,ugm-3,50,R,ugm-3,99,R,ugm-3
08-01-2011,14:00,0.5,R,mgm-3,41,R,ugm-3,52,R,ugm-3,115,R,ugm-3
08-01-2011,15:00,0.6,R,mgm-3,54,R,ugm-3,63,R,ugm-3,145,R,ugm-3
08-01-2011,16:00,0.6,R,mgm-3,59,R,ugm-3,74,R,ugm-3,164,R,ugm-3
08-01-2011,17:00,0.6,R,mgm-3,56,R,ugm-3,84,R,ugm-3,170,R,ugm-3
08-01-2011,18:00,0.7,R,mgm-3,55,R,ugm-3,84,R,ugm-3,168,R,ugm-3
08-01-2011,19:00,0.6,R,mgm-3,40,R,ugm-3,71,R,ugm-3,132,R,ugm-3
08-01-2011,20:00,0.5,R,mgm-3,23,R,ugm-3,65,R,ugm-3,99,R,ugm-3
08-01-2011,21:00,0.5,R,mgm-3,21,R,ugm-3,59,R,ugm-3,92,R,ugm-3
08-01-2011,22:00,0.5,R,mgm-3,20,R,ugm-3,50,R,ugm-3,80,R,ugm-3
08-01-2011,23:00,0.3,R,mgm-3,14,R,ugm-3,40,R,ugm-3,61,R,ugm-3
08-01-2011,24:00,0.3,R,mgm-3,9,R,ugm-3,34,R,ugm-3,48,R,ugm-3
09-01-2011,01:00,0.3,R,mgm-3,11,R,ugm-3,38,R,ugm-3,55,R,ugm-3
09-01-2011,02:00,0.3,R,mgm-3,10,R,ugm-3,32,R,ugm-3,48,R,ugm-3
09-01-2011,03:00,0.3,R,mgm-3,8,R,ugm-3,27,R,ugm-3,38,R,ugm-3
09-01-2011,04:00,0.3,R,mgm-3,10,R,ugm-3,32,R,ugm-3,48,R,ugm-3
09-01-2011,05:00,0.3,R,mgm-3,11,R,ugm-3,31,R,ugm-3,48,R,ugm-3
09-01-2011,06:00,0.3,R,mgm-3,10,R,ugm-3,32,R,ugm-3,48,R,ugm-3
09-01-2011,07:00,0.3,R,mgm-3,13,R,ugm-3,40,R,ugm-3,59,R,ugm-3
09-01-2011,08:00,0.3,R,mgm-3,23,R,ugm-3,55,R,ugm-3,90,R,ugm-3
09-01-2011,09:00,0.3,R,mgm-3,15,R,ugm-3,46,R,ugm-3,69,R,ugm-3
09-01-2011,10:00,0.5,R,mgm-3,30,R,ugm-3,59,R,ugm-3,105,R,ugm-3
09-01-2011,11:00,0.5,R,mgm-3,50,R,ugm-3,78,R,ugm-3,155,R,ugm-3
09-01-2011,12:00,0.6,R,mgm-3,53,R,ugm-3,74,R,ugm-3,155,R,ugm-3
09-01-2011,13:00,0.5,R,mgm-3,45,R,ugm-3,67,R,ugm-3,136,R,ugm-3
09-01-2011,14:00,0.6,R,mgm-3,59,R,ugm-3,78,R,ugm-3,168,R,ugm-3
09-01-2011,15:00,0.6,R,mgm-3,49,R,ugm-3,76,R,ugm-3,151,R,ugm-3
09-01-2011,16:00,0.7,R,mgm-3,58,R,ugm-3,80,R,ugm-3,168,R,ugm-3
09-01-2011,17:00,0.7,R,mgm-3,71,R,ugm-3,92,R,ugm-3,201,R,ugm-3
09-01-2011,18:00,0.7,R,mgm-3,63,R,ugm-3,96,R,ugm-3,191,R,ugm-3
09-01-2011,19:00,0.8,R,mgm-3,69,R,ugm-3,99,R,ugm-3,204,R,ugm-3
09-01-2011,20:00,0.8,R,mgm-3,66,R,ugm-3,97,R,ugm-3,199,R,ugm-3
09-01-2011,21:00,0.7,R,mgm-3,49,R,ugm-3,90,R,ugm-3,164,R,ugm-3
09-01-2011,22:00,0.6,R,mgm-3,30,R,ugm-3,82,R,ugm-3,128,R,ugm-3
09-01-2011,23:00,0.6,R,mgm-3,34,R,ugm-3,86,R,ugm-3,138,R,ugm-3
09-01-2011,24:00,0.7,R,mgm-3,33,R,ugm-3,84,R,ugm-3,134,R,ugm-3
10-01-2011,01:00,0.6,R,mgm-3,29,R,ugm-3,76,R,ugm-3,120,R,ugm-3
10-01-2011,02:00,0.5,R,mgm-3,23,R,ugm-3,73,R,ugm-3,107,R,ugm-3
10-01-2011,03:00,0.3,R,mgm-3,6,R,ugm-3,52,R,ugm-3,61,R,ugm-3
10-01-2011,04:00,0.3,R,mgm-3,9,R,ugm-3,40,R,ugm-3,53,R,ugm-3
10-01-2011,05:00,0.3,R,mgm-3,6,R,ugm-3,34,R,ugm-3,44,R,ugm-3
10-01-2011,06:00,0.3,R,mgm-3,6,R,ugm-3,36,R,ugm-3,46,R,ugm-3
10-01-2011,07:00,0.3,R,mgm-3,19,R,ugm-3,57,R,ugm-3,86,R,ugm-3
10-01-2011,08:00,0.5,R,mgm-3,30,R,ugm-3,71,R,ugm-3,117,R,ugm-3
10-01-2011,09:00,0.6,R,mgm-3,38,R,ugm-3,76,R,ugm-3,134,R,ugm-3
10-01-2011,10:00,0.5,R,mgm-3,25,R,ugm-3,67,R,ugm-3,105,R,ugm-3
10-01-2011,11:00,0.3,R,mgm-3,18,R,ugm-3,53,R,ugm-3,80,R,ugm-3
10-01-2011,12:00,0.3,R,mgm-3,14,R,ugm-3,44,R,ugm-3,65,R,ugm-3
10-01-2011,13:00,0.2,R,mgm-3,11,R,ugm-3,38,R,ugm-3,55,R,ugm-3
10-01-2011,14:00,0.2,R,mgm-3,13,R,ugm-3,34,R,ugm-3,53,R,ugm-3
10-01-2011,15:00,0.2,R,mgm-3,11,R,ugm-3,38,R,ugm-3,55,R,ugm-3
10-01-2011,16:00,0.2,R,mgm-3,11,R,ugm-3,42,R,ugm-3,59,R,ugm-3
10-01-2011,17:00,0.3,R,mgm-3,9,R,ugm-3,38,R,ugm-3,52,R,ugm-3
10-01-2011,18:00,0.3,R,mgm-3,6,R,ugm-3,36,R,ugm-3,46,R,ugm-3
10-01-2011,19:00,0.3,R,mgm-3,4,R,ugm-3,27,R,ugm-3,32,R,ugm-3
10-01-2011,20:00,0.2,R,mgm-3,3,R,ugm-3,21,R,ugm-3,25,R,ugm-3
10-01-2011,21:00,0.2,R,mgm-3,3,R,ugm-3,19,R,ugm-3,23,R,ugm-3
10-01-2011,22:00,0.2,R,mgm-3,4,R,ugm-3,17,R,ugm-3,23,R,ugm-3
10-01-2011,23:00,0.2,R,mgm-3,4,R,ugm-3,13,R,ugm-3,19,R,ugm-3
10-01-2011,24:00,0.2,R,mgm-3,1,R,ugm-3,13,R,ugm-3,15,R,ugm-3
11-01-2011,01:00,0.2,R,mgm-3,1,R,ugm-3,11,R,ugm-3,13,R,ugm-3
11-01-2011,02:00,0.2,R,mgm-3,1,R,ugm-3,11,R,ugm-3,13,R,ugm-3
11-01-2011,03:00,0.2,R,mgm-3,3,R,ugm-3,13,R,ugm-3,17,R,ugm-3
11-01-2011,04:00,0.2,R,mgm-3,4,R,ugm-3,17,R,ugm-3,23,R,ugm-3
11-01-2011,05:00,0.3,R,mgm-3,14,R,ugm-3,40,R,ugm-3,61,R,ugm-3
11-01-2011,06:00,0.3,R,mgm-3,55,R,ugm-3,69,R,ugm-3,153,R,ugm-3
11-01-2011,07:00,0.6,R,mgm-3,108,R,ugm-3,101,R,ugm-3,265,R,ugm-3
11-01-2011,08:00,0.7,R,mgm-3,96,R,ugm-3,96,R,ugm-3,243,R,ugm-3
11-01-2011,09:00,0.7,R,mgm-3,111,R,ugm-3,101,R,ugm-3,271,R,ugm-3
11-01-2011,10:00,0.8,R,mgm-3,126,R,ugm-3,101,R,ugm-3,294,R,ugm-3
11-01-2011,11:00,0.6,R,mgm-3,90,R,ugm-3,86,R,ugm-3,223,R,ugm-3
11-01-2011,12:00,0.3,R,mgm-3,59,R,ugm-3,67,R,ugm-3,157,R,ugm-3
11-01-2011,13:00,0.5,R,mgm-3,76,R,ugm-3,76,R,ugm-3,193,R,ugm-3
11-01-2011,14:00,0.5,R,mgm-3,61,R,ugm-3,61,R,ugm-3,155,R,ugm-3
11-01-2011,15:00,0.5,R,mgm-3,63,R,ugm-3,63,R,ugm-3,159,R,ugm-3
11-01-2011,16:00,0.6,R,mgm-3,84,R,ugm-3,80,R,ugm-3,208,R,ugm-3
11-01-2011,17:00,0.8,R,mgm-3,113,R,ugm-3,101,R,ugm-3,273,R,ugm-3
11-01-2011,18:00,0.8,R,mgm-3,116,R,ugm-3,105,R,ugm-3,283,R,ugm-3
11-01-2011,19:00,0.8,R,mgm-3,83,R,ugm-3,92,R,ugm-3,218,R,ugm-3
11-01-2011,20:00,0.7,R,mgm-3,75,R,ugm-3,90,R,ugm-3,204,R,ugm-3
11-01-2011,21:00,0.8,R,mgm-3,93,R,ugm-3,97,R,ugm-3,239,R,ugm-3
11-01-2011,22:00,0.7,R,mgm-3,93,R,ugm-3,96,R,ugm-3,237,R,ugm-3
11-01-2011,23:00,0.6,R,mgm-3,63,R,ugm-3,88,R,ugm-3,183,R,ugm-3
11-01-2011,24:00,0.5,R,mgm-3,26,R,ugm-3,74,R,ugm-3,115,R,ugm-3
12-01-2011,01:00,0.5,R,mgm-3,20,R,ugm-3,73,R,ugm-3,103,R,ugm-3
12-01-2011,02:00,0.3,R,mgm-3,6,R,ugm-3,50,R,ugm-3,59,R,ugm-3
12-01-2011,03:00,0.2,R,mgm-3,5,R,ugm-3,29,R,ugm-3,36,R,ugm-3
12-01-2011,04:00,0.2,R,mgm-3,4,R,ugm-3,27,R,ugm-3,32,R,ugm-3
12-01-2011,05:00,0.2,R,mgm-3,3,R,ugm-3,25,R,ugm-3,29,R,ugm-3
12-01-2011,06:00,0.2,R,mgm-3,4,R,ugm-3,23,R,ugm-3,29,R,ugm-3
12-01-2011,07:00,0.2,R,mgm-3,8,R,ugm-3,32,R,ugm-3,44,R,ugm-3
12-01-2011,08:00,0.3,R,mgm-3,10,R,ugm-3,42,R,ugm-3,57,R,ugm-3
12-01-2011,09:00,0.5,R,mgm-3,25,R,ugm-3,63,R,ugm-3,101,R,ugm-3
12-01-2011,10:00,0.5,R,mgm-3,35,R,ugm-3,65,R,ugm-3,118,R,ugm-3
12-01-2011,11:00,0.3,R,mgm-3,33,R,ugm-3,61,R,ugm-3,111,R,ugm-3
12-01-2011,12:00,0.3,R,mgm-3,31,R,ugm-3,59,R,ugm-3,107,R,ugm-3
12-01-2011,13:00,0.3,R,mgm-3,39,R,ugm-3,67,R,ugm-3,126,R,ugm-3
12-01-2011,14:00,0.3,R,mgm-3,41,R,ugm-3,67,R,ugm-3,130,R,ugm-3
12-01-2011,15:00,,,,,,,,,,,,
12-01-2011,16:00,0.5,R,mgm-3,39,R,ugm-3,65,R,ugm-3,124,R,ugm-3
12-01-2011,17:00,0.5,R,mgm-3,38,R,ugm-3,69,R,ugm-3,126,R,ugm-3
12-01-2011,18:00,0.3,R,mgm-3,36,R,ugm-3,65,R,ugm-3,120,R,ugm-3
12-01-2011,19:00,0.5,R,mgm-3,30,R,ugm-3,65,R,ugm-3,111,R,ugm-3
12-01-2011,20:00,0.5,R,mgm-3,29,R,ugm-3,61,R,ugm-3,105,R,ugm-3
12-01-2011,21:00,0.3,R,mgm-3,16,R,ugm-3,50,R,ugm-3,74,R,ugm-3
12-01-2011,22:00,0.2,R,mgm-3,11,R,ugm-3,40,R,ugm-3,57,R,ugm-3
12-01-2011,23:00,0.2,R,mgm-3,11,R,ugm-3,38,R,ugm-3,55,R,ugm-3
12-01-2011,24:00,0.2,R,mgm-3,10,R,ugm-3,32,R,ugm-3,48,R,ugm-3
13-01-2011,01:00,0.2,R,mgm-3,9,R,ugm-3,27,R,ugm-3,40,R,ugm-3
13-01-2011,02:00,0.1,R,mgm-3,5,R,ugm-3,19,R,ugm-3,27,R,ugm-3
13-01-2011,03:00,0.1,R,mgm-3,4,R,ugm-3,17,R,ugm-3,23,R,ugm-3
13-01-2011,04:00,0.1,R,mgm-3,3,R,ugm-3,17,R,ugm-3,21,R,ugm-3
13-01-2011,05:00,0.1,R,mgm-3,5,R,ugm-3,15,R,ugm-3,23,R,ugm-3
13-01-2011,06:00,0.1,R,mgm-3,5,R,ugm-3,19,R,ugm-3,27,R,ugm-3
13-01-2011,07:00,0.2,R,mgm-3,14,R,ugm-3,31,R,ugm-3,52,R,ugm-3
13-01-2011,08:00,0.2,R,mgm-3,16,R,ugm-3,42,R,ugm-3,67,R,ugm-3
13-01-2011,09:00,0.2,R,mgm-3,19,R,ugm-3,48,R,ugm-3,76,R,ugm-3
13-01-2011,10:00,0.2,R,mgm-3,25,R,ugm-3,50,R,ugm-3,88,R,ugm-3
13-01-2011,11:00,0.3,R,mgm-3,36,R,ugm-3,57,R,ugm-3,113,R,ugm-3
13-01-2011,12:00,0.2,R,mgm-3,33,R,ugm-3,53,R,ugm-3,103,R,ugm-3
13-01-2011,13:00,0.2,R,mgm-3,30,R,ugm-3,52,R,ugm-3,97,R,ugm-3
13-01-2011,14:00,0.2,R,mgm-3,29,R,ugm-3,52,R,ugm-3,96,R,ugm-3
13-01-2011,15:00,0.3,R,mgm-3,33,R,ugm-3,55,R,ugm-3,105,R,ugm-3
13-01-2011,16:00,0.3,R,mgm-3,30,R,ugm-3,55,R,ugm-3,101,R,ugm-3
13-01-2011,17:00,0.3,R,mgm-3,35,R,ugm-3,59,R,ugm-3,113,R,ugm-3
13-01-2011,18:00,0.5,R,mgm-3,26,R,ugm-3,59,R,ugm-3,99,R,ugm-3
13-01-2011,19:00,0.3,R,mgm-3,25,R,ugm-3,57,R,ugm-3,96,R,ugm-3
13-01-2011,20:00,0.2,R,mgm-3,14,R,ugm-3,46,R,ugm-3,67,R,ugm-3
13-01-2011,21:00,0.2,R,mgm-3,13,R,ugm-3,34,R,ugm-3,53,R,ugm-3
13-01-2011,22:00,0.2,R,mgm-3,9,R,ugm-3,29,R,ugm-3,42,R,ugm-3
13-01-2011,23:00,0.1,R,mgm-3,9,R,ugm-3,27,R,ugm-3,40,R,ugm-3
13-01-2011,24:00,0.1,R,mgm-3,8,R,ugm-3,25,R,ugm-3,36,R,ugm-3
14-01-2011,01:00,0.1,R,mgm-3,6,R,ugm-3,21,R,ugm-3,31,R,ugm-3
14-01-2011,02:00,0.1,R,mgm-3,4,R,ugm-3,15,R,ugm-3,21,R,ugm-3
14-01-2011,03:00,0.1,R,mgm-3,4,R,ugm-3,15,R,ugm-3,21,R,ugm-3
14-01-2011,04:00,0.1,R,mgm-3,4,R,ugm-3,15,R,ugm-3,21,R,ugm-3
14-01-2011,05:00,0.1,R,mgm-3,3,R,ugm-3,15,R,ugm-3,19,R,ugm-3
14-01-2011,06:00,0.1,R,mgm-3,8,R,ugm-3,21,R,ugm-3,32,R,ugm-3
14-01-2011,07:00,0.1,R,mgm-3,11,R,ugm-3,31,R,ugm-3,48,R,ugm-3
14-01-2011,08:00,0.2,R,mgm-3,15,R,ugm-3,42,R,ugm-3,65,R,ugm-3
14-01-2011,09:00,0.3,R,mgm-3,29,R,ugm-3,57,R,ugm-3,101,R,ugm-3
14-01-2011,10:00,0.2,R,mgm-3,28,R,ugm-3,55,R,ugm-3,97,R,ugm-3
14-01-2011,11:00,0.2,R,mgm-3,30,R,ugm-3,53,R,ugm-3,99,R,ugm-3
14-01-2011,12:00,0.2,R,mgm-3,20,R,ugm-3,48,R,ugm-3,78,R,ugm-3
14-01-2011,13:00,0.2,R,mgm-3,23,R,ugm-3,48,R,ugm-3,82,R,ugm-3
14-01-2011,14:00,0.2,R,mgm-3,19,R,ugm-3,48,R,ugm-3,76,R,ugm-3
14-01-2011,15:00,0.2,R,mgm-3,16,R,ugm-3,46,R,ugm-3,71,R,ugm-3
14-01-2011,16:00,0.3,R,mgm-3,41,R,ugm-3,63,R,ugm-3,126,R,ugm-3
14-01-2011,17:00,0.5,R,mgm-3,66,R,ugm-3,97,R,ugm-3,199,R,ugm-3
14-01-2011,18:00,0.6,R,mgm-3,46,R,ugm-3,84,R,ugm-3,155,R,ugm-3
14-01-2011,19:00,0.5,R,mgm-3,35,R,ugm-3,74,R,ugm-3,128,R,ugm-3
14-01-2011,20:00,0.3,R,mgm-3,21,R,ugm-3,61,R,ugm-3,94,R,ugm-3
14-01-2011,21:00,0.3,R,mgm-3,25,R,ugm-3,61,R,ugm-3,99,R,ugm-3
14-01-2011,22:00,0.3,R,mgm-3,19,R,ugm-3,55,R,ugm-3,84,R,ugm-3
14-01-2011,23:00,0.3,R,mgm-3,14,R,ugm-3,48,R,ugm-3,69,R,ugm-3
14-01-2011,24:00,0.2,R,mgm-3,9,R,ugm-3,40,R,ugm-3,53,R,ugm-3
15-01-2011,01:00,0.2,R,mgm-3,10,R,ugm-3,34,R,ugm-3,50,R,ugm-3
15-01-2011,02:00,0.2,R,mgm-3,9,R,ugm-3,29,R,ugm-3,42,R,ugm-3
15-01-2011,03:00,0.1,R,mgm-3,5,R,ugm-3,23,R,ugm-3,31,R,ugm-3
15-01-2011,04:00,0.1,R,mgm-3,4,R,ugm-3,15,R,ugm-3,21,R,ugm-3
15-01-2011,05:00,0.1,R,mgm-3,4,R,ugm-3,15,R,ugm-3,21,R,ugm-3
15-01-2011,06:00,0.1,R,mgm-3,3,R,ugm-3,13,R,ugm-3,17,R,ugm-3
15-01-2011,07:00,0.1,R,mgm-3,6,R,ugm-3,15,R,ugm-3,25,R,ugm-3
15-01-2011,08:00,0.1,R,mgm-3,6,R,ugm-3,17,R,ugm-3,27,R,ugm-3
15-01-2011,09:00,0.1,R,mgm-3,6,R,ugm-3,23,R,ugm-3,32,R,ugm-3
15-01-2011,10:00,0.1,R,mgm-3,8,R,ugm-3,21,R,ugm-3,32,R,ugm-3
15-01-2011,11:00,0.2,R,mgm-3,9,R,ugm-3,25,R,ugm-3,38,R,ugm-3
15-01-2011,12:00,0.2,R,mgm-3,10,R,ugm-3,23,R,ugm-3,38,R,ugm-3
15-01-2011,13:00,0.2,R,mgm-3,11,R,ugm-3,25,R,ugm-3,42,R,ugm-3
15-01-2011,14:00,0.2,R,mgm-3,10,R,ugm-3,25,R,ugm-3,40,R,ugm-3
15-01-2011,15:00,0.2,R,mgm-3,8,R,ugm-3,25,R,ugm-3,36,R,ugm-3
15-01-2011,16:00,0.2,R,mgm-3,9,R,ugm-3,25,R,ugm-3,38,R,ugm-3
15-01-2011,17:00,0.2,R,mgm-3,8,R,ugm-3,25,R,ugm-3,36,R,ugm-3
15-01-2011,18:00,0.2,R,mgm-3,8,R,ugm-3,25,R,ugm-3,36,R,ugm-3
15-01-2011,19:00,0.2,R,mgm-3,6,R,ugm-3,23,R,ugm-3,32,R,ugm-3
15-01-2011,20:00,0.2,R,mgm-3,8,R,ugm-3,21,R,ugm-3,32,R,ugm-3
15-01-2011,21:00,0.2,R,mgm-3,6,R,ugm-3,21,R,ugm-3,31,R,ugm-3
15-01-2011,22:00,0.2,R,mgm-3,5,R,ugm-3,19,R,ugm-3,27,R,ugm-3
15-01-2011,23:00,0.2,R,mgm-3,8,R,ugm-3,17,R,ugm-3,29,R,ugm-3
15-01-2011,24:00,0.2,R,mgm-3,4,R,ugm-3,15,R,ugm-3,21,R,ugm-3
16-01-2011,01:00,0.1,R,mgm-3,6,R,ugm-3,21,R,ugm-3,31,R,ugm-3
16-01-2011,02:00,0.1,R,mgm-3,3,R,ugm-3,19,R,ugm-3,23,R,ugm-3
16-01-2011,03:00,0.1,R,mgm-3,4,R,ugm-3,13,R,ugm-3,19,R,ugm-3
16-01-2011,04:00,0.1,R,mgm-3,3,R,ugm-3,15,R,ugm-3,19,R,ugm-3
16-01-2011,05:00,0.1,R,mgm-3,3,R,ugm-3,15,R,ugm-3,19,R,ugm-3
16-01-2011,06:00,0.1,R,mgm-3,3,R,ugm-3,13,R,ugm-3,17,R,ugm-3
16-01-2011,07:00,0.1,R,mgm-3,5,R,ugm-3,15,R,ugm-3,23,R,ugm-3
16-01-2011,08:00,0.1,R,mgm-3,4,R,ugm-3,15,R,ugm-3,21,R,ugm-3
16-01-2011,09:00,0.1,R,mgm-3,5,R,ugm-3,17,R,ugm-3,25,R,ugm-3
16-01-2011,10:00,0.1,R,mgm-3,5,R,ugm-3,17,R,ugm-3,25,R,ugm-3
16-01-2011,11:00,0.1,R,mgm-3,5,R,ugm-3,19,R,ugm-3,27,R,ugm-3
16-01-2011,12:00,0.1,R,mgm-3,8,R,ugm-3,19,R,ugm-3,31,R,ugm-3
16-01-2011,13:00,0.2,R,mgm-3,9,R,ugm-3,19,R,ugm-3,32,R,ugm-3
16-01-2011,14:00,0.2,R,mgm-3,8,R,ugm-3,21,R,ugm-3,32,R,ugm-3
16-01-2011,15:00,0.1,R,mgm-3,5,R,ugm-3,19,R,ugm-3,27,R,ugm-3
16-01-2011,16:00,0.2,R,mgm-3,6,R,ugm-3,21,R,ugm-3,31,R,ugm-3
16-01-2011,17:00,0.2,R,mgm-3,6,R,ugm-3,27,R,ugm-3,36,R,ugm-3
16-01-2011,18:00,0.2,R,mgm-3,6,R,ugm-3,29,R,ugm-3,38,R,ugm-3
16-01-2011,19:00,0.2,R,mgm-3,9,R,ugm-3,27,R,ugm-3,40,R,ugm-3
16-01-2011,20:00,0.2,R,mgm-3,8,R,ugm-3,25,R,ugm-3,36,R,ugm-3
16-01-2011,21:00,0.2,R,mgm-3,9,R,ugm-3,23,R,ugm-3,36,R,ugm-3
16-01-2011,22:00,0.2,R,mgm-3,8,R,ugm-3,25,R,ugm-3,36,R,ugm-3
16-01-2011,23:00,0.2,R,mgm-3,14,R,ugm-3,32,R,ugm-3,53,R,ugm-3
16-01-2011,24:00,0.3,R,mgm-3,34,R,ugm-3,67,R,ugm-3,118,R,ugm-3
17-01-2011,01:00,0.3,R,mgm-3,41,R,ugm-3,71,R,ugm-3,134,R,ugm-3
17-01-2011,02:00,0.2,R,mgm-3,8,R,ugm-3,46,R,ugm-3,57,R,ugm-3
17-01-2011,03:00,0.2,R,mgm-3,23,R,ugm-3,61,R,ugm-3,96,R,ugm-3
17-01-2011,04:00,0.2,R,mgm-3,4,R,ugm-3,46,R,ugm-3,52,R,ugm-3
17-01-2011,05:00,0.2,R,mgm-3,9,R,ugm-3,44,R,ugm-3,57,R,ugm-3
17-01-2011,06:00,0.2,R,mgm-3,14,R,ugm-3,48,R,ugm-3,69,R,ugm-3
17-01-2011,07:00,0.3,R,mgm-3,50,R,ugm-3,71,R,ugm-3,147,R,ugm-3
17-01-2011,08:00,0.7,R,mgm-3,126,R,ugm-3,103,R,ugm-3,296,R,ugm-3
17-01-2011,09:00,0.8,R,mgm-3,136,R,ugm-3,97,R,ugm-3,306,R,ugm-3
17-01-2011,10:00,0.8,R,mgm-3,206,R,ugm-3,118,R,ugm-3,434,R,ugm-3
17-01-2011,11:00,0.5,R,mgm-3,89,R,ugm-3,94,R,ugm-3,229,R,ugm-3
17-01-2011,12:00,0.5,R,mgm-3,100,R,ugm-3,99,R,ugm-3,252,R,ugm-3
17-01-2011,13:00,0.6,R,mgm-3,96,R,ugm-3,103,R,ugm-3,250,R,ugm-3
17-01-2011,14:00,0.6,R,mgm-3,111,R,ugm-3,113,R,ugm-3,283,R,ugm-3
17-01-2011,15:00,0.5,R,mgm-3,114,R,ugm-3,109,R,ugm-3,283,R,ugm-3
17-01-2011,16:00,0.6,R,mgm-3,104,R,ugm-3,113,R,ugm-3,271,R,ugm-3
17-01-2011,17:00,1.0,R,mgm-3,163,R,ugm-3,145,R,ugm-3,393,R,ugm-3